Weather in Kavalerskoye

Russia / Kamchatka Krai     52°55′43″N   156°34′24″E
temp.,
°C
wind,
m/s
gust,
m/s
humid.,
%
clouds,
%
prec.,
mm/h
press.,
hPa
HPBL,
m
28 february, sun
sun2800:00−13nne447758 0.0 100941
03:00−13n347396 0.0 100835
06:00−14nnw347794 0.0 100756
09:00−14n3482100 0.0 100682
12:00−10nnw4680100 0.0 1005258
15:00−8nw6108189 0.0 1003445
18:00−7nw5118994 0.0 1001549
21:00−7nw51194100 0.3 1001492
1 march, mon
mon100:00−8nw51190100 0.5 999355
03:00−9wnw51090100 0.1 998211
06:00−9wnw498493 0.1 998192
09:00−9w51081100 0.1 998214
12:00−5w81087100 0.3 999995
15:00−5w91175100 0.3 10001284
18:00−6wsw71288100 0.6 1001577
21:00−7w61373100 0.5 1004280
2 march, tue
tue200:00−8w5117960 0.5 1006209
03:00−7wsw5993100 0.3 1008223
06:00−12nnw4489100 0.4 101145
09:00−11ssw1295100 0.4 101634
12:00−6w8107299 0.5 10191308
15:00−7w81075100 0.3 10221269
18:00−10wsw498185 0.4 1025236
21:00−13sw2378100 0.0 102821
3 march, wed
wed300:00−13e3482100 0.0 102747
03:00−12e4883100 0.0 1024209
06:00−11e81493100 1.0 1017422
09:00−9e152277100 1.4 1009471
12:00−6e182579100 1.7 999602
15:00−4e172593100 7.5 990851
18:00−1ese162695100 15.4 981863
21:00+3se142592100 2.6 975984
4 march, thu
thu400:00−7w152189100 3.1 9841381
03:00−10w121890100 0.6 9941319
06:00−11w121885100 1.3 10001448
09:00−11w111790100 0.6 10051543
12:00−10w131787100 1.1 10091862
15:00−8wsw111689100 0.5 10101608
18:00−5sw131993100 2.4 10081509
21:00−4sw152294100 3.1 10061432